DECAYED

STARLINK-3448, 51728 (Decayed)

Orbit data source: Space-Track

STARLINK-3448, 51728 was a payload satellite owned by SpaceX/Seattle (US) in LEO that was launched on Mon, 21 Feb 2022 UTC via an FALCON 9 launch vehicle from the Air Force Eastern Test Range (AFETR). Payload-class satellites include a variety of spacecraft equipped with specific instruments for various scientific and technological missions. These include communications satellites like Starlink; space stations such as the ISS; scientific satellites like the Hubble; Earth observation satellites from companies like Planet Labs, Umbra, and HawkEye 360; GPS; miniature CubeSats for education and research; and military/defense satellites.

Not visible in the next 10 days
Identifier
51728, 2022-016Q
Orbit
Decayed
Country
Flag of USUS
Related business
Manufacturer
SpaceX/Seattle
Mission
Decayed Commercial Communications
Bus & Motor
STARLINK, Unknown motor
Mass
297 kg wet, ~275 kg dry
Launch date (UTC)
2022-02-21 (4 years ago)
Launch vehicle
FALCON 9
Launch site
Air Force Eastern Test Range (AFETR)
Object type
Payload
Rocket body
Debris
Shape & HBR
Box + 1 Pan, 10.1 m
Radar Cross Section
13.562 m², Large (>1 m²)

Expand to show TLE details & history
Last TLE update: 1 year ago

TLE from 1 year ago
0 STARLINK-3448
1 51728U 22016Q   25106.81861111  .99999999  10604-4  27340-2 0  9990
2 51728  53.6456 308.1458 0235087 109.6555  79.0787 16.10805178175906
Epoch: 2025-04-16T19:38Z
TLE epoch observation values (Epoch: 2025-04-16T19:38:47.999Z)
Latitude
-9.29401°
Longitude
-4.87521°
Altitude
221.342 km
Speed
7.79 km/s
True Right ascension
09h 00m 05s
True Declination
-9° 14' 06"
Sunlit
Object was in full shadow at epoch
Visualization orbit readout
Latitude
Unknown
Longitude
Unknown
Altitude
Unknown
Speed
Unknown
Apparent Right ascension
Unknown
Apparent Declination
Unknown
Sunlit
N/A
Visualization observer readout
Local Sidereal Time
21:32:08
Azimuth
Unknown
Elevation
Unknown
Doppler factor
Unknown
Orbital elements
Apogee altitude
400.517 km
Perigee altitude
89.123 km
Semi-major axis
6,622.957 km
Eccentricity
0.02351
Inclination
53.6456°
RAAN
308.1458°
Arg. of periapsis
109.6555°
True anomaly
81.73766°
Mean anomaly
79.0787°
Eccentric anomaly
80.40681°
Mean motion
4.02685 °/min
Orbital period
89.4 mins
BSTAR
0.002734
Loading maneuver chart data...
Computing Atmospheric mass density...
Loading historical data...
Loading historical data...
Loading historical data...
Loading historical data...
Loading historical data...
Loading historical data...
Loading historical data...

Documentation

Showing up to 5 results
|